Погода в Большом Игнатово

Россия / Республика Мордовия     55°00′58″N   45°34′20″E
темп.,
°C
ветер,
м/с
пор.,
м/с
влажн.,
%
обл.,
%
осадки,
мм/ч
давл.,
гПа
погр.,
м
19 апреля, пн
пн1900:00+6всв6127868 0.0 1023529
03:00+4всв61269100 0.0 1024400
06:00+3всв61365100 0.0 1024438
09:00+6в81056100 0.0 1025729
12:00+7в91142100 0.0 10251181
15:00+8в911435 0.0 10251349
18:00+6в7115326 0.0 10251260
21:00+4в6136457 0.0 1026720
20 апреля, вт
вт2000:00+5в71266100 0.0 1026849
03:00+2в614625 0.0 1026566
06:00+2в7156621 0.0 1026710
09:00+6вюв8134915 0.0 1026967
12:00+9вюв9124118 0.0 10251282
15:00+10вюв9124176 0.0 10241373
18:00+8вюв81345100 0.0 10221189
21:00+7вюв91643100 0.0 10211010
21 апреля, ср
ср2100:00+6вюв101945100 0.0 10181025
03:00+4юв112169100 2.3 10151059
06:00+4юв112074100 1.3 1013993
09:00+4юв101985100 1.6 1013887
12:00+6ююв101985100 0.0 1013865
15:00+7ююв81486100 0.1 1014762
18:00+7ююв7158888 0.1 1015699
21:00+6ююв61492100 0.7 1017606
22 апреля, чт
чт2200:00+5ю51295100 0.5 1018573
03:00+6ююв389699 0.6 1018302
06:00+6ююв379597 0.2 1019269
09:00+10ю577795 0.3 1019845
12:00+12ююз586761 0.8 10201256
15:00+12юз5856100 1.2 10201118
18:00+12ююз25595 0.0 102199
21:00+8ю337377 0.0 102337
23 апреля, пт
пт2300:00+8ю3672100 0.0 1022117
03:00+8ююв3874100 0.0 1022148
06:00+8ю267299 0.0 1023166
09:00+12ю455565 0.0 1023363
12:00+15ююв334074 0.0 10222081
15:00+15юв2347100 0.0 10211138
18:00+13вюв3756100 0.0 1020201
21:00+9юв397836 0.0 1020155